Flag for U.S.A. Weather past 2 weeks in Glendale, California, U.S.A.

69 °F

Mostly cloudy.

Feels Like: 69 °F
Forecast: 60 / 68 °F
Wind: 9 mph from Southeast

Location: Burbank-Glendale-Pasadena Airport

Current Time: Oct 4, 2015 at 2:52:07 PM

Latest Report: Oct 4, 2015 at 1:53 PM

Visibility: 10 mi

Pressure: 29.61 "Hg

Humidity: 49%

Dew point: 49 °F

Location of GlendaleLocation

Historic Weather in Glendale — Graph


Glendale temperature yesterday

Maximum temperature yesterday: 83 °F (at 1:53 PM)
Minimum temperature yesterday: 63 °F (at 6:53 AM)
Average temperature yesterday: 73 °F

Past Weeks' High & Low Weather Summary

High104 °F (Sep 20, 2:53 PM)88% (Oct 4, 3:59 AM)29.91 "Hg (Oct 4, 3:59 AM)
Low62 °F (Oct 4, 7:53 AM)14% (Sep 20, 3:53 PM)29.52 "Hg (Oct 3, 5:53 PM)
Average79 °F51%29.79 "Hg
* Reported Sep 19 1:53 PM — Oct 4 1:53 PM, Glendale, Weather by CustomWeather, © 2015

Note: Actual official high and low records may vary slightly from our data, if they occured in-between our weather recording intervals... More about our weather records


Glendale weather history for previous 24 hours

Time TempWeatherWind HumidityBarometerVisibility
1:53 PM
Sun, Oct 4
69 °FMostly cloudy.9 mph49%29.61 "Hg10 mi
12:53 PM68 °FMostly cloudy.10 mph51%29.62 "Hg10 mi
11:53 AM68 °FCloudy.9 mph53%29.62 "Hg10 mi
10:57 AM66 °FCloudy.8 mph56%29.66 "Hg10 mi
9:53 AM64 °FCloudy.6 mph73%29.62 "Hg10 mi
8:53 AM63 °FMostly cloudy.5 mph78%29.61 "Hg10 mi
7:53 AM62 °FLight rain. Overcast.6 mph80%29.59 "Hg5 mi
6:53 AM63 °FMostly cloudy.9 mph81%29.56 "Hg5 mi
5:53 AM64 °FLight rain. Overcast.9 mph81%29.54 "Hg10 mi
4:53 AM65 °FLight rain. Overcast.9 mph81%29.54 "Hg5 mi
3:59 AM64 °FHeavy rain. Fog.8 mph88%29.57 "Hg3 mi
2:53 AM68 °FHeavy rain. Mostly cloudy.16 mph76%29.53 "Hg7 mi
1:53 AM69 °FMostly cloudy.14 mph70%29.53 "Hg10 mi
12:53 AM69 °FPassing clouds.14 mph73%29.54 "Hg10 mi
11:53 PM
Sat, Oct 3
70 °FPassing clouds.15 mph73%29.55 "Hg10 mi
10:53 PM71 °FMostly cloudy.13 mph71%29.55 "Hg10 mi
9:53 PM71 °FMostly cloudy.9 mph73%29.55 "Hg10 mi
8:53 PM70 °FMostly cloudy.8 mph76%29.54 "Hg10 mi
7:53 PM71 °FClear.7 mph71%29.53 "Hg10 mi
6:53 PM73 °FSunny.9 mph66%29.53 "Hg10 mi
5:53 PM77 °FSunny.12 mph52%29.52 "Hg10 mi
4:53 PM79 °FSunny.10 mph50%29.53 "Hg10 mi
3:53 PM81 °FSunny.12 mph49%29.53 "Hg10 mi
2:53 PM82 °FSunny.10 mph49%29.53 "Hg10 mi
Weather by CustomWeather, © 2015

See weather overviewHow to use our weather pages